This demonstration page uses our WeatherBlox Daily Observations layout. Learn more.

Left ArrowRight Arrow

39.51506, -84.39828

Hourly Observations for August 16, 2021

Temp ( °F °C ) Dew Point ( °F °C ) Humidity (%) Winds ( mph kmh ) Pressure ( in mb ) Visibility ( mi km ) Precip ( " mm )
12:15 am 00:15 Cloudy 68 20 66 18.9 93 93 NNE 3 6 30.10 1019 10 16 N/A
12:35 am 00:35 Cloudy 68 19.9 66 19.1 95 95 NNE 3 6 30.10 1019 10 16 N/A
12:55 am 00:55 Cloudy 68 20 66 19 94 94 N N/A 30.10 1019 10 16 N/A
1:15 am 01:15 Cloudy 68 20 66 19 94 94 N 5 7 30.10 1019 10 16 N/A
1:35 am 01:35 Cloudy 68 20 66 19 94 94 NNE 6 9 30.09 1019 10 16 N/A
1:55 am 01:55 Cloudy 68 19.9 66 18.9 94 94 NNE 5 7 30.08 1019 10 16 N/A
2:15 am 02:15 Cloudy with Light Rain 68 20 65 18.6 92 92 NE 6 9 30.07 1018 10 16 N/A
2:35 am 02:35 Cloudy with Light Rain 67 19.7 65 18.6 93 93 NE 3 6 30.08 1018 10 16 N/A
2:55 am 02:55 Cloudy with Light Rain 67 19.2 66 18.7 97 97 NNE 5 7 30.08 1019 10 16 N/A
3:15 am 03:15 Cloudy with Light Rain 66 18.9 65 18.5 98 98 NNE 6 9 30.07 1018 10 16 0.01 0.25
3:35 am 03:35 Cloudy with Light Rain 66 18.7 65 18.3 98 98 NNE 5 7 30.07 1018 10 16 0.01 0.25
3:55 am 03:55 Cloudy with Light Rain 65 18.5 65 18.4 99 99 NNE 3 6 30.06 1018 10 16 0.02 0.51
4:15 am 04:15 Cloudy with Light Rain 64 18 N/A N/A N 5 7 30.06 1018 10 16 0.01 0.25
4:35 am 04:35 Cloudy with Light Rain 64 18 N/A N/A NNE 5 7 30.06 1018 10 16 0.01 0.25
4:55 am 04:55 Cloudy with Heavy Rain 64 18 N/A N/A N N/A 30.06 1018 10 16 0.01 0.25
5:15 am 05:15 Partly Cloudy with Light Rain 64 18 N/A N/A NNE 5 7 30.06 1018 10 16 N/A
5:35 am 05:35 Cloudy 64 18 N/A N/A NE 3 6 30.06 1018 10 16 N/A
5:55 am 05:55 Cloudy 64 18 N/A N/A NE 3 6 30.07 1018 10 16 N/A
6:15 am 06:15 Cloudy 64 18 N/A N/A N N/A 30.06 1018 10 16 N/A
6:35 am 06:35 Cloudy 64 18 N/A N/A NE 3 6 30.07 1018 10 16 N/A
6:55 am 06:55 Cloudy 64 18 N/A N/A N 5 7 30.07 1018 10 16 N/A
7:15 am 07:15 Cloudy 64 18 N/A N/A NE 3 6 30.07 1018 10 16 N/A
7:35 am 07:35 Mostly Cloudy 64 18 N/A N/A NNE 5 7 30.08 1019 10 16 N/A
7:55 am 07:55 Cloudy 64 18 N/A N/A NNE 5 7 30.08 1019 10 16 N/A
8:15 am 08:15 Cloudy 66 19 N/A N/A NNE 5 7 30.08 1019 10 16 N/A
8:35 am 08:35 Cloudy 66 19 N/A N/A NE 5 7 30.07 1018 10 16 N/A
8:55 am 08:55 Cloudy 66 19 N/A N/A NE 6 9 30.08 1019 10 16 N/A
9:15 am 09:15 Cloudy 67 19.4 67 19.3 99 99 NE 6 9 30.08 1018 10 16 N/A
9:35 am 09:35 Cloudy 68 19.8 67 19.6 99 99 NE 3 6 30.09 1019 10 16 N/A
9:55 am 09:55 Cloudy 68 20 67 19.7 98 98 NE 3 6 30.08 1019 10 16 N/A
10:15 am 10:15 Cloudy 69 20.4 67 19.7 96 96 N N/A 30.08 1019 10 16 N/A
10:35 am 10:35 Cloudy with Light Rain 69 20.4 68 20 98 98 N N/A 30.09 1019 10 16 N/A
10:55 am 10:55 Mostly Cloudy with Light Rain 69 20.8 68 20.2 96 96 N N/A 30.09 1019 10 16 0.01 0.25
11:15 am 11:15 Cloudy 70 21.3 69 20.6 96 96 N N/A 30.09 1019 10 16 N/A
11:35 am 11:35 Cloudy 71 21.9 69 20.7 93 93 N N/A 30.09 1019 10 16 N/A
11:55 am 11:55 Cloudy 72 22.4 70 21 92 92 N N/A 30.09 1019 10 16 N/A
12:15 pm 12:15 Cloudy 73 22.6 70 21.1 91 91 S 3 6 30.09 1019 10 16 N/A
12:35 pm 12:35 Cloudy 74 23.5 71 21.5 89 89 SE 5 7 30.08 1019 10 16 N/A
12:55 pm 12:55 Cloudy 74 23.3 71 21.4 89 89 N N/A 30.07 1018 10 16 N/A
1:15 pm 13:15 Mostly Cloudy 75 23.9 71 21.6 87 87 SW 3 6 30.07 1018 10 16 N/A
1:35 pm 13:35 Partly Cloudy 76 24.7 71 21.6 83 83 E 3 6 30.05 1018 10 16 N/A
1:55 pm 13:55 Mostly Cloudy 78 25.5 70 21.2 77 77 N N/A 30.04 1017 10 16 N/A
2:15 pm 14:15 Partly Cloudy 78 25.4 71 21.4 79 79 SW 3 6 30.04 1017 10 16 N/A
2:35 pm 14:35 Mostly Cloudy 79 26.3 72 22 77 77 ENE 6 9 30.04 1017 10 16 N/A
2:55 pm 14:55 Cloudy 79 25.9 71 21.7 78 78 ESE 3 6 30.03 1017 10 16 N/A
3:15 pm 15:15 Cloudy 79 25.9 71 21.5 77 77 ENE 3 6 30.03 1017 10 16 N/A
3:35 pm 15:35 Cloudy 80 26.4 71 21.5 75 75 N N/A 30.02 1017 10 16 N/A
3:55 pm 15:55 Cloudy 80 26.9 71 21.4 72 72 NNE 3 6 30.01 1016 10 16 N/A
4:15 pm 16:15 Partly Cloudy 81 27.1 70 21.3 71 71 N 7 11 30.01 1016 10 16 N/A
4:35 pm 16:35 Mostly Cloudy 80 26.8 70 21.2 71 71 NE 5 7 30.00 1016 10 16 N/A
4:55 pm 16:55 Cloudy 80 26.7 71 21.5 73 73 NNW 3 6 30.00 1016 10 16 N/A
5:15 pm 17:15 Mostly Cloudy 80 26.7 70 21.2 72 72 NNE 5 7 29.99 1016 10 16 N/A
5:35 pm 17:35 Cloudy 81 27.3 71 21.4 70 70 E 5 7 29.99 1016 10 16 N/A
5:55 pm 17:55 Partly Cloudy 82 27.6 72 22 72 72 SE 8 13 29.99 1015 10 16 N/A
6:15 pm 18:15 Mostly Cloudy 80 26.9 69 20.7 69 69 SE 8 13 29.99 1016 10 16 N/A
6:35 pm 18:35 Partly Cloudy 80 26.4 71 21.7 75 75 SE 7 11 30.00 1016 10 16 N/A
6:55 pm 18:55 Cloudy with Nearby Thunderstorms 73 23 73 22.5 97 97 S 12 19 30.01 1016 10 16 N/A
7:15 pm 19:15 Cloudy with Rain 72 22 72 22 100 100 S 8 13 30.01 1016 3 4 0.13 3.30
7:35 pm 19:35 Cloudy with Light Rain 73 22.7 73 22.5 99 99 S 5 7 30.00 1016 10 16 0.16 4.06
7:55 pm 19:55 Mostly Cloudy 73 23 73 23 100 100 N N/A 30.01 1016 10 16 0.16 4.06
8:15 pm 20:15 Mostly Cloudy 73 23 N/A N/A N N/A 30.01 1016 10 16 N/A
8:35 pm 20:35 Partly Cloudy 72 22 N/A N/A N N/A 30.01 1016 7 11 N/A
8:55 pm 20:55 Hazy 72 22 N/A N/A N N/A 30.01 1016 4 6 N/A
9:15 pm 21:15 Hazy 72 22 N/A N/A NNE 3 6 30.01 1016 7 11 N/A
9:35 pm 21:35 Hazy 72 22 N/A N/A N N/A 30.02 1017 7 11 N/A
9:55 pm 21:55 Cloudy with Haze 72 22 N/A N/A E 3 6 30.02 1017 5 8 N/A
10:15 pm 22:15 Cloudy 72 22 N/A N/A N N/A 30.02 1017 10 16 N/A
10:35 pm 22:35 Clear 72 22 N/A N/A NE 3 6 30.02 1017 10 16 N/A
10:55 pm 22:55 Clear 72 22 N/A N/A N N/A 30.03 1017 7 11 N/A
11:15 pm 23:15 Hazy 70 21 N/A N/A ENE 3 6 30.03 1017 5 8 N/A
11:35 pm 23:35 Cloudy with Haze 72 22 N/A N/A NE 3 6 30.04 1017 5 8 N/A
11:55 pm 23:55 Hazy 70 21 N/A N/A N N/A 30.04 1017 7 11 N/A

Powered by AerisWeather